Knoxville, IA

3:25 AM CST on November 18, 2017 (GMT -0600)
Knoxville Municipal

Weather History for KOXV - April, 2014

Change the Weather History Date:

Wednesday, April 9, 2014

  Actual Average Record
Temperature  
Mean Temperature 50 °F -  
Max Temperature 71 °F 57 °F 84 °F (2011)
Min Temperature 30 °F 35 °F 19 °F (1982)
Degree Days  
Heating Degree Days 14    
Moisture  
Dew Point 28 °F    
Average Humidity 44    
Maximum Humidity 81    
Minimum Humidity 20    
Precipitation  
Precipitation 0.00 in - - ()
Sea Level Pressure  
Sea Level Pressure 29.91 in    
Wind  
Wind Speed 10 mph (SSW)    
Max Wind Speed 24 mph    
Max Gust Speed 32 mph    
Visibility 10 miles    
Events      
Averages and records for this station are not official NWS values.
T = Trace of Precipitation, MM = Missing Value Source: NWS Daily Summary

Daily Weather History Graph

Daily Weather History Graph

Search for Another Location

Airport or City:

Trip Planner

Search our weather history database for the weather conditions in past years. The results will help you decide how hot, cold, wet, or windy it might be!

Date:

Astronomy

Apr. 09, 2014 Rise Set
Actual Time 6:42 AM CDT 7:46 PM CDT
Civil Twilight 6:14 AM CDT 8:14 PM CDT
Nautical Twilight 5:40 AM CDT 8:48 PM CDT
Astronomical Twilight 5:05 AM CDT 9:23 PM CDT
Moon 2:31 PM CDT (4/9) 3:35 AM CDT (4/9)
Length of Visible Light 14h 00m
Length of Day
13h 03m
Waxing Gibbous, 72% of the Moon is Illuminated
Apr 9
Waxing Gibbous
Apr 15
Full
Apr 22
Last Quarter
Apr 29
New
May 6
First Quarter

Hourly Weather History & Observations

Time (CDT) Temp. Windchill Dew Point Humidity Pressure Visibility Wind Dir Wind Speed Gust Speed Precip Events Conditions
12:15 AM 37.4 °F 33.8 °F 28.4 °F 70% 30.04 in 10.0 mi WNW 4.6 mph - N/A   Clear
12:35 AM 37.4 °F 33.8 °F 28.4 °F 70% 30.04 in 10.0 mi WNW 4.6 mph - N/A   Clear
12:55 AM 35.6 °F 30.7 °F 28.4 °F 75% 30.04 in 10.0 mi West 5.8 mph - N/A   Clear
1:15 AM 35.6 °F 29.2 °F 28.4 °F 75% 30.04 in 10.0 mi West 8.1 mph - N/A   Clear
1:35 AM 33.8 °F 27.0 °F 26.6 °F 75% 30.04 in 10.0 mi West 8.1 mph - N/A   Clear
1:55 AM 32.0 °F 26.4 °F 26.6 °F 80% 30.04 in 10.0 mi WSW 5.8 mph - N/A   Clear
2:15 AM 32.0 °F 25.6 °F 26.6 °F 80% 30.04 in 10.0 mi WSW 6.9 mph - N/A   Clear
2:35 AM 33.8 °F 27.7 °F 28.4 °F 81% 30.04 in 10.0 mi SW 6.9 mph - N/A   Clear
2:55 AM 33.8 °F 27.7 °F 26.6 °F 75% 30.04 in 10.0 mi WSW 6.9 mph - N/A   Clear
3:15 AM 32.0 °F 26.4 °F 24.8 °F 75% 30.03 in 10.0 mi WSW 5.8 mph - N/A   Clear
3:35 AM 30.2 °F 24.3 °F 24.8 °F 80% 30.03 in 10.0 mi WSW 5.8 mph - N/A   Clear
3:55 AM 33.8 °F 27.0 °F 26.6 °F 75% 30.03 in 10.0 mi WSW 8.1 mph - N/A   Clear
4:15 AM 33.8 °F 27.7 °F 26.6 °F 75% 30.03 in 10.0 mi SW 6.9 mph - N/A   Clear
4:35 AM 33.8 °F 27.7 °F 26.6 °F 75% 30.03 in 10.0 mi WSW 6.9 mph - N/A   Clear
4:55 AM 33.8 °F 27.7 °F 24.8 °F 70% 30.04 in 10.0 mi SW 6.9 mph - N/A   Clear
5:15 AM 32.0 °F 25.6 °F 24.8 °F 75% 30.04 in 10.0 mi SW 6.9 mph - N/A   Clear
5:35 AM 33.8 °F 28.6 °F 24.8 °F 70% 30.04 in 10.0 mi SW 5.8 mph - N/A   Clear
5:55 AM 33.8 °F 27.7 °F 24.8 °F 70% 30.04 in 10.0 mi SW 6.9 mph - N/A   Clear
6:15 AM 32.0 °F 25.6 °F 24.8 °F 75% 30.04 in 10.0 mi SW 6.9 mph - N/A   Clear
6:35 AM 33.8 °F 27.0 °F 24.8 °F 70% 30.04 in 10.0 mi SSW 8.1 mph - N/A   Clear
6:55 AM 33.8 °F 27.7 °F 24.8 °F 70% 30.04 in 10.0 mi SSW 6.9 mph - N/A   Clear
7:15 AM 33.8 °F 27.7 °F 24.8 °F 70% 30.05 in 10.0 mi SSW 6.9 mph - N/A   Clear
7:35 AM 35.6 °F 29.9 °F 26.6 °F 70% 30.05 in 10.0 mi SSW 6.9 mph - N/A   Clear
7:55 AM 37.4 °F 31.4 °F 28.4 °F 70% 30.05 in 10.0 mi SSW 8.1 mph - N/A   Clear
8:15 AM 39.2 °F 35.0 °F 28.4 °F 65% 30.05 in 10.0 mi Variable 5.8 mph - N/A   Clear
8:35 AM 42.8 °F 38.0 °F 30.2 °F 61% 30.04 in 10.0 mi South 8.1 mph - N/A   Clear
8:55 AM 44.6 °F 39.2 °F 32.0 °F 61% 30.04 in 10.0 mi SSW 10.4 mph - N/A   Clear
9:15 AM 48.2 °F - 30.2 °F 50% 30.04 in 10.0 mi SSW 11.5 mph - N/A   Clear
9:35 AM 50.0 °F - 26.6 °F 40% 30.03 in 10.0 mi SSW 12.7 mph - N/A   Clear
9:55 AM 53.6 °F - 26.6 °F 35% 30.02 in 10.0 mi SSW 12.7 mph 18.4 mph N/A   Clear
10:15 AM 55.4 °F - 26.6 °F 33% 30.01 in 10.0 mi SSW 15.0 mph 20.7 mph N/A   Clear
10:35 AM 57.2 °F - 24.8 °F 29% 30.00 in 10.0 mi SSW 15.0 mph - N/A   Clear
10:55 AM 59.0 °F - 24.8 °F 27% 29.99 in 10.0 mi SSW 17.3 mph - N/A   Clear
11:15 AM 60.8 °F - 23.0 °F 23% 29.99 in 10.0 mi SSW 16.1 mph 25.3 mph N/A   Clear
11:35 AM 60.8 °F - 23.0 °F 23% 29.97 in 10.0 mi SSW 13.8 mph 24.2 mph N/A   Clear
11:55 AM 62.6 °F - 23.0 °F 22% 29.95 in 10.0 mi SSW 16.1 mph 23.0 mph N/A   Clear
12:15 PM 64.4 °F - 23.0 °F 21% 29.94 in 10.0 mi SSW 16.1 mph - N/A   Clear
12:35 PM 64.4 °F - 23.0 °F 21% 29.93 in 10.0 mi South 17.3 mph 24.2 mph N/A   Clear
12:55 PM 66.2 °F - 24.8 °F 21% 29.91 in 10.0 mi South 20.7 mph - N/A   Clear
1:15 PM 66.2 °F - 24.8 °F 21% 29.90 in 10.0 mi South 17.3 mph 24.2 mph N/A   Clear
1:35 PM 68.0 °F - 24.8 °F 20% 29.89 in 10.0 mi South 21.9 mph 29.9 mph N/A   Clear
1:55 PM 68.0 °F - 26.6 °F 21% 29.88 in 10.0 mi SW 24.2 mph 31.1 mph N/A   Clear
2:15 PM 68.0 °F - 24.8 °F 20% 29.87 in 10.0 mi SSW 20.7 mph 27.6 mph N/A   Clear
2:35 PM 69.8 °F - 26.6 °F 20% 29.85 in 10.0 mi SSW 23.0 mph 29.9 mph N/A   Clear
2:55 PM 69.8 °F - 28.4 °F 21% 29.84 in 10.0 mi SSW 20.7 mph 31.1 mph N/A   Clear
3:15 PM 69.8 °F - 26.6 °F 20% 29.82 in 10.0 mi SSW 19.6 mph 27.6 mph N/A   Clear
3:35 PM 69.8 °F - 28.4 °F 21% 29.81 in 10.0 mi SSW 17.3 mph 32.2 mph N/A   Clear
3:55 PM 69.8 °F - 26.6 °F 20% 29.80 in - SSW 21.9 mph 32.2 mph N/A   Clear
4:15 PM 71.6 °F - 28.4 °F 20% 29.80 in 10.0 mi SSW 17.3 mph 27.6 mph N/A   Clear
4:35 PM 71.6 °F - 28.4 °F 20% 29.78 in 10.0 mi SSW 21.9 mph 29.9 mph N/A   Clear
4:55 PM 71.6 °F - 28.4 °F 20% 29.78 in 10.0 mi SW 19.6 mph 29.9 mph N/A   Clear
5:15 PM 71.6 °F - 30.2 °F 22% 29.78 in 10.0 mi SSW 23.0 mph 28.8 mph N/A   Clear
5:35 PM 71.6 °F - 30.2 °F 22% 29.77 in 10.0 mi SSW 17.3 mph 28.8 mph N/A   Clear
5:55 PM 71.6 °F - 30.2 °F 22% 29.77 in 10.0 mi SSW 23.0 mph 29.9 mph N/A   Clear
6:15 PM 69.8 °F - 30.2 °F 23% 29.76 in 10.0 mi SSW 19.6 mph 29.9 mph N/A   Clear
6:35 PM 69.8 °F - 30.2 °F 23% 29.77 in 10.0 mi SSW 15.0 mph 26.5 mph N/A   Clear
6:55 PM 68.0 °F - 30.2 °F 24% 29.77 in 10.0 mi SSW 15.0 mph 23.0 mph N/A   Clear
7:15 PM 66.2 °F - 32.0 °F 28% 29.77 in 10.0 mi South 13.8 mph - N/A   Clear
7:35 PM 66.2 °F - 32.0 °F 28% 29.76 in 10.0 mi South 12.7 mph - N/A   Clear
7:55 PM 64.4 °F - 32.0 °F 30% 29.75 in 10.0 mi South 12.7 mph - N/A   Clear
8:15 PM 62.6 °F - 32.0 °F 32% 29.75 in 10.0 mi South 10.4 mph - N/A   Clear
8:30 PM 62.6 °F - 33.8 °F 34% 29.75 in 10.0 mi South 10.4 mph - N/A   Clear
8:55 PM 60.8 °F - 33.8 °F 36% 29.75 in 10.0 mi South 11.5 mph - N/A   Clear
9:15 PM 62.6 °F - 33.8 °F 34% 29.75 in 10.0 mi South 13.8 mph - N/A   Partly Cloudy
9:35 PM 62.6 °F - 33.8 °F 34% 29.74 in 10.0 mi South 15.0 mph - N/A   Clear
10:15 PM 62.6 °F - 33.8 °F 34% 29.74 in 10.0 mi South 16.1 mph 21.9 mph N/A   Partly Cloudy
10:35 PM 62.6 °F - 33.8 °F 34% 29.73 in 10.0 mi South 17.3 mph - N/A   Clear
10:55 PM 62.6 °F - 33.8 °F 34% 29.72 in 10.0 mi SSW 16.1 mph 21.9 mph N/A   Partly Cloudy
11:15 PM 62.6 °F - 33.8 °F 34% 29.72 in 10.0 mi SSW 16.1 mph 24.2 mph N/A   Partly Cloudy
11:35 PM 62.6 °F - 33.8 °F 34% 29.71 in 10.0 mi SSW 18.4 mph 24.2 mph N/A   Partly Cloudy
11:55 PM 62.6 °F - 33.8 °F 34% 29.71 in 10.0 mi SSW 15.0 mph 23.0 mph N/A   Clear